Regional Weather Roundup
Issued by NWS

Home | Current Version | Previous Version | Graphics & Text | Print | Product List | Glossary On
Versions: 1 2 3 4 5 6 7 8 9 10 11 12 13 14 15 16 17 18 19 20 21 22 23 24 25 26 27 28 29 30 31 32 33 34 35 36 37 38 39 40 41 42 43 44 45 46 47 48 49 50
000
ASUS43 KFSD 022202
RWRSD

WEATHER ROUNDUP FOR SOUTH DAKOTA
NATIONAL WEATHER SERVICE SIOUX FALLS SD
500 PM CDT SUN AUG 02 2015

NOTE: "FAIR" INDICATES FEW OR NO CLOUDS BELOW 12,000 FEET WITH NO
SIGNIFICANT WEATHER AND/OR OBSTRUCTIONS TO VISIBILITY.


SDZ001>005-009-010-012>017-022300-
NORTHWEST AND NORTH CENTRAL SOUTH DAKOTA

CITY           SKY/WX    TMP DP  RH WIND       PRES   REMARKS
BUFFALO          N/A     85  47  26 NE9       29.94F
FAITH            N/A     87  46  24 N12       29.96F
MOBRIDGE       SUNNY     84  56  38 N14       29.90F
$$

SDZ012>016-024>037-041>051-057-063-072>074-022300-
SOUTHWEST AND SOUTH CENTRAL SOUTH DAKOTA

CITY           SKY/WX    TMP DP  RH WIND       PRES   REMARKS
RAPID CTY ARPT SUNNY     86  53  32 NE5       29.99F
PIERRE         SUNNY     89  52  28 N9        29.89F
CUSTER         PTSUNNY   72  49  44 E10       30.13F
PHILIP         SUNNY     88  54  31 E8        29.92F
PINE RIDGE     SUNNY     88  53  30 E12       29.97F
WINNER         FAIR      89  57  33 NE9       29.91S
$$

SDZ004>011-016>023-039-040-022300-
NORTHEAST SOUTH DAKOTA

CITY           SKY/WX    TMP DP  RH WIND       PRES   REMARKS
ABERDEEN       SUNNY     81  56  42 N9        29.88S
WATERTOWN      SUNNY     78  57  48 N14G23    29.88R
BROOKINGS      SUNNY     79  57  47 N16       29.87S
SISSETON         N/A     79  57  46 N14       29.83F
$$

SDZ017-020-022-023-036>040-048>070-022300-
SOUTHEAST SOUTH DAKOTA

CITY           SKY/WX    TMP DP  RH WIND       PRES   REMARKS
SIOUX FALLS    SUNNY     85  62  46 NW10      29.84S
HURON          SUNNY     83  59  44 N14G21    29.86S
CHAMBERLAIN    SUNNY     84  59  43 NE6       29.89F
MITCHELL       SUNNY     84  59  42 N13G20    29.86F
YANKTON        SUNNY     86  64  48 N10       29.82F
$$

ABBREVIATIONS USED IN REMARKS
   TC - TEMPERATURE IN CELSIUS
  WCI - WIND CHILL INDEX
   HX - HEAT INDEX
  VSB - VISIBILITY




USA.gov is the U.S. government's official web portal to all federal, state and local government web resources and services.